Location: Martley
(52.2333°N, 2.3667°W)
Time: 02:33:31
(UTC+00:00)

CZ-4B DEB - Pass Details

Date: 11 December 2019
Orbit: 841 x 861 km, 99.1° (Epoch: 25 January)

Event Time Altitude Azimuth Distance (km) Brightness Sun altitude
Rises 06:23:02 0° 13° (NNE) 3,431 7.3 -15.0°
Reaches altitude 10° 06:25:28 10° 8° (N) 2,494 6.5 -14.6°
Maximum altitude 06:30:47 51° 294° (WNW) 1,072 4.3 -13.8°
Drops below altitude 10° 06:36:07 10° 221° (SW) 2,490 6.4 -13.1°
Sets 06:38:32 0° 216° (SW) 3,425 7.2 -12.7°
